Location: Tel Aviv
(32.0670°N, 34.7670°E)
Time: 00:40:24
(UTC+03:00)

XW-2B - Visible Passes

Search period start: 01 April 2023 00:00
Search period end: 11 April 2023 00:00
Orbit: 479 x 498 km, 97.5° (Epoch: 31 March)

Date Brightness Start Highest point End Pass type
(mag) Time Alt. Az. Time Alt. Az. Time Alt. Az.
02 Apr ? 05:52:59 10° E 05:53:22 10° E 05:53:45 10° E visible
06 Apr ? 05:53:27 10° E 05:54:05 10° E 05:54:43 10° ESE visible
10 Apr ? 05:53:33 10° E 05:54:11 10° E 05:54:48 10° ESE visible
